Home > Time Zones > World Clock > Weather > U.S.A. > Adak > Past weeks

Flag for U.S.A. Weather past 2 weeks in Adak, Alaska, U.S.A.

Now
34 °F

Passing clouds.


Feels Like: 22 °F
Forecast: 32 / 36 °F
Wind: 21 mph from Northwest

Location: Adak

Current Time: Mar 28, 2015 at 3:56:15 AM

Latest Report: Mar 28, 2015 at 3:16 AM


Visibility: 10 mi

Pressure: 29.70 "Hg

Humidity: 70%

Dew point: 25 °F

Location of AdakLocation

Historic Weather in Adak — Graph

°F

Adak temperature yesterday

Maximum temperature yesterday: 37 °F (at 1:16 PM)
Minimum temperature yesterday: 32 °F (at 10:36 PM)
Average temperature yesterday: 35 °F

Past Weeks' High & Low Weather Summary

 TemperatureHumidityPressure
High41 °F (Mar 20, 3:16 PM)100% (Mar 16, 6:36 PM)29.92 "Hg (Mar 16, 6:36 PM)
Low28 °F (Mar 25, 8:56 AM)45% (Mar 26, 2:56 PM)29.29 "Hg (Mar 13, 4:56 AM)
Average35 °F73%29.70 "Hg
* Reported Mar 13 2:16 AM — Mar 28 2:36 AM, Adak, Weather by CustomWeather, © 2015

Note: Actual official high and low records may vary slightly from our data, if they occured in-between our weather recording intervals... More about our weather records

Advertising

Adak weather history for previous 24 hours

 ConditionsComfort  
Time TempWeatherWind HumidityBarometerVisibility
2:36 AM
Sat, Mar 28
32 °FPartly cloudy.18 mph80%29.70 "Hg2 mi
2:16 AM34 °FPartly cloudy.22 mph75%29.69 "Hg10 mi
1:56 AM34 °FOvercast.18 mph70%29.69 "Hg1 mi
1:36 AM34 °FOvercast.17 mph65%29.69 "Hg10 mi
1:16 AM34 °FOvercast.20 mph65%29.68 "Hg10 mi
12:56 AM34 °FOvercast.17 mph60%29.68 "Hg10 mi
12:36 AM34 °FOvercast.22 mph60%29.68 "Hg10 mi
12:16 AM34 °FOvercast.23 mph60%29.67 "Hg10 mi
11:56 PM
Fri, Mar 27
34 °FOvercast.23 mph65%29.67 "Hg10 mi
11:36 PM34 °FMostly cloudy.22 mph70%29.67 "Hg10 mi
11:16 PM34 °FPartly cloudy.21 mph75%29.67 "Hg10 mi
10:56 PM34 °FPartly cloudy.23 mph70%29.67 "Hg10 mi
10:36 PM32 °FOvercast.16 mph80%29.66 "Hg3 mi
10:16 PM34 °FMostly cloudy.22 mph75%29.66 "Hg10 mi
9:56 PM34 °FPartly cloudy.23 mph75%29.66 "Hg10 mi
9:36 PM34 °FPartly cloudy.20 mph75%29.65 "Hg5 mi
9:16 PM34 °FOvercast.24 mph75%29.65 "Hg5 mi
8:56 PM34 °FChilly.16 mph81%29.64 "Hg5 mi
8:16 PM34 °FMostly cloudy.23 mph75%29.63 "Hg6 mi
7:56 PM34 °FBroken clouds.25 mph75%29.62 "Hg10 mi
7:36 PM34 °FCloudy.23 mph75%29.61 "Hg10 mi
6:36 PM34 °FMostly cloudy.21 mph75%29.59 "Hg2 mi
6:16 PM36 °FMore clouds than sun.22 mph60%29.59 "Hg10 mi
5:56 PM36 °FMostly cloudy.24 mph60%29.58 "Hg10 mi
5:36 PM36 °FMostly cloudy.22 mph56%29.58 "Hg10 mi
5:16 PM37 °FPartly sunny.23 mph52%29.58 "Hg10 mi
4:56 PM37 °FPartly sunny.25 mph52%29.57 "Hg10 mi
4:36 PM37 °FScattered clouds.30 mph52%29.57 "Hg10 mi
4:16 PM37 °FScattered clouds.25 mph52%29.57 "Hg10 mi
3:56 PM37 °FPartly sunny.25 mph52%29.57 "Hg10 mi
3:36 PM37 °FBroken clouds.22 mph52%29.57 "Hg10 mi
3:16 PM37 °FMore clouds than sun.26 mph52%29.57 "Hg10 mi
2:56 PM37 °FMore clouds than sun.22 mph60%29.57 "Hg10 mi
2:36 PM36 °FCloudy.26 mph56%29.56 "Hg9 mi
2:16 PM36 °FBroken clouds.25 mph65%29.56 "Hg5 mi
1:56 PM37 °FMore clouds than sun.25 mph56%29.56 "Hg10 mi
1:36 PM37 °FBroken clouds.24 mph60%29.56 "Hg10 mi
1:16 PM37 °FMostly cloudy.25 mph56%29.55 "Hg10 mi
12:56 PM36 °FOvercast.22 mph60%29.55 "Hg10 mi
12:16 PM34 °FMostly cloudy.18 mph70%29.55 "Hg7 mi
11:56 AM36 °FBroken clouds.22 mph60%29.54 "Hg10 mi
11:36 AM36 °FOvercast.21 mph56%29.54 "Hg10 mi
11:16 AM36 °FMore clouds than sun.24 mph56%29.53 "Hg10 mi
10:56 AM36 °FMore clouds than sun.22 mph52%29.53 "Hg10 mi
10:36 AM34 °FOvercast.18 mph56%29.53 "Hg10 mi
10:16 AM34 °FOvercast.20 mph56%29.53 "Hg10 mi
9:56 AM34 °FOvercast.22 mph56%29.52 "Hg10 mi
9:36 AM34 °FMostly cloudy.25 mph56%29.52 "Hg10 mi
9:16 AM34 °FOvercast.20 mph56%29.52 "Hg10 mi
8:56 AM34 °FOvercast.21 mph51%29.51 "Hg10 mi
8:36 AM34 °FOvercast.22 mph56%29.51 "Hg10 mi
8:16 AM34 °FOvercast.23 mph51%29.50 "Hg10 mi
7:56 AM34 °FOvercast.23 mph56%29.50 "Hg10 mi
7:36 AM34 °FOvercast.17 mph56%29.50 "Hg10 mi
7:16 AM34 °FMostly cloudy.21 mph56%29.50 "Hg10 mi
6:56 AM34 °FPassing clouds.22 mph51%29.50 "Hg10 mi
6:36 AM34 °FMostly cloudy.21 mph60%29.49 "Hg10 mi
6:16 AM34 °FOvercast.23 mph56%29.49 "Hg10 mi
5:56 AM34 °FPartly cloudy.22 mph60%29.49 "Hg10 mi
5:36 AM34 °FPassing clouds.21 mph56%29.49 "Hg10 mi
5:16 AM34 °FPassing clouds.18 mph51%29.49 "Hg10 mi
4:56 AM34 °FPartly cloudy.18 mph51%29.49 "Hg10 mi
4:36 AM34 °FOvercast.17 mph56%29.49 "Hg10 mi
4:16 AM34 °FOvercast.12 mph56%29.49 "Hg10 mi
3:56 AM34 °FOvercast.20 mph51%29.49 "Hg10 mi
3:36 AM34 °FMostly cloudy.20 mph51%29.49 "Hg10 mi
3:16 AM34 °FOvercast.17 mph51%29.49 "Hg10 mi
Weather by CustomWeather, © 2015

See weather overviewHow to use our weather pages